ZL2IH Weather Reports


time (UTC)temp
C
wind
direction
speed
KPH
gust
KPH
rain 1hr
cm
rain 24hr
cm
rain mn
cm
humidity
%
barometer
mb
20260510021018 14 180 4.8 19.3 0.03 0.08 0.05 100 1003.1
20260510020018 14 180 3.2 12.9 0.00 0.05 0.03 100 1003.3
20260510015038 13 203 3.2 14.5 0.00 0.05 0.03 100 1003.5
20260510014017 14 180 3.2 12.9 0.00 0.08 0.03 100 1003.4
20260510013018 13 203 1.6 12.9 0.00 0.13 0.03 100 1003.5
20260510012017 13 158 3.2 16.1 0.00 0.13 0.03 100 1003.5
20260510011058 13 203 3.2 20.9 0.00 0.13 0.03 100 1003.4
20260510010038 13 135 1.6 8.0 0.00 0.15 0.03 100 1003.6
20260510005018 13 180 1.6 9.7 0.00 0.15 0.03 100 1003.7
20260510004018 13 180 1.6 6.4 0.00 0.15 0.03 100 1003.9
20260510003037 13 180 1.6 6.4 0.00 0.15 0.03 100 1003.9
20260510002017 13 0.0 6.4 0.00 0.15 0.03 100 1003.9
20260510001017 13 0.0 6.4 0.00 0.15 0.03 100 1004.1
20260510000017 14 203 1.6 3.2 0.00 0.15 0.03 100 1004.3
20260509235018 14 180 1.6 6.4 0.00 0.15 0.03 100 1004.3
20260509234017 14 225 1.6 12.9 0.00 0.15 0.03 100 1004.2
20260509233017 14 203 3.2 11.3 0.00 0.15 0.03 100 1004.3
20260509232038 13 203 4.8 22.5 0.00 0.15 0.03 100 1003.9
20260509231017 13 203 4.8 24.1 0.03 0.15 0.03 100 1003.7
20260509230017 13 180 3.2 12.9 0.03 0.18 0.03 100 1003.8
20260509225019 13 180 3.2 11.3 0.03 0.18 0.03 100 1003.6
20260509224017 13 158 3.2 9.7 0.03 0.18 0.03 100 1003.4
20260509223017 13 180 3.2 12.9 0.03 0.18 0.03 100 1003.1
20260509222017 13 203 3.2 9.7 0.03 0.18 0.03 100 1003.3
20260509221017 13 203 1.6 6.4 0.00 0.15 0.00 100 1003.7
20260509220017 13 158 4.8 11.3 0.00 0.15 0.00 100 1003.6
20260509215037 13 180 3.2 12.9 0.00 0.15 0.00 100 1003.6
20260509214017 13 203 3.2 12.9 0.00 0.15 0.00 100 1003.5
20260509213017 13 158 3.2 12.9 0.00 0.15 0.00 100 1003.3
20260509212017 12 180 4.8 16.1 0.00 0.15 0.00 100 1003.3
20260509211017 12 203 3.2 12.9 0.00 0.15 0.00 100 1003.4
20260509210017 12 135 3.2 16.1 0.00 0.15 0.00 100 1003.3
20260509205017 12 158 3.2 12.9 0.00 0.15 0.00 100 1003.2
20260509204018 12 203 3.2 8.0 0.00 0.15 0.00 100 1003.0
20260509203017 12 180 3.2 9.7 0.00 0.15 0.00 100 1003.3
20260509202017 11 203 3.2 16.1 0.00 0.15 0.00 100 1003.1
20260509201017 11 180 3.2 8.0 0.00 0.15 0.00 100 1003.0
20260509200016 11 158 3.2 17.7 0.00 0.15 0.00 100 1003.0
20260509195017 11 135 1.6 8.0 0.00 0.15 0.00 100 1003.0
20260509194037 10 203 1.6 8.0 0.00 0.15 0.00 100 1002.9
20260509193057 10 203 1.6 8.0 0.00 0.18 0.00 100 1002.8
20260509192017 10 135 1.6 8.0 0.00 0.18 0.00 100 1002.6
20260509191017 10 203 1.6 12.9 0.00 0.38 0.00 100 1002.7
20260509190017 10 158 3.2 9.7 0.00 0.51 0.00 100 1002.4
20260509185017 10 203 3.2 12.9 0.00 0.51 0.00 100 1002.3
20260509184016 10 180 1.6 6.4 0.00 0.86 0.00 100 1002.5
20260509183016 10 180 1.6 6.4 0.00 1.17 0.00 100 1002.6
20260509182017 10 135 3.2 11.3 0.00 1.17 0.00 100 1002.4
20260509181017 10 180 3.2 9.7 0.00 1.17 0.00 100 1002.5
20260509180016 10 113 3.2 6.4 0.00 1.17 0.00 100 1002.4
20260509175017 10 225 1.6 12.9 0.00 1.17 0.00 100 1002.4
20260509174016 10 225 1.6 6.4 0.00 1.17 0.00 100 1002.3
20260509173017 10 158 1.6 6.4 0.00 1.17 0.00 100 1002.4
20260509172017 10 0.0 3.2 0.00 1.17 0.00 100 1002.4
20260509171017 10 203 1.6 6.4 0.00 1.17 0.00 100 1002.4
20260509170016 10 158 1.6 6.4 0.00 1.17 0.00 100 1002.2
20260509165016 10 180 1.6 6.4 0.00 1.17 0.00 100 1002.0
20260509164019 10 180 3.2 12.9 0.00 1.17 0.00 100 1002.1
20260509163019 10 203 1.6 12.9 0.00 1.17 0.00 100 1002.3
20260509162019 10 203 1.6 9.7 0.00 1.17 0.00 100 1002.1
20260509161019 10 203 1.6 6.4 0.00 1.17 0.00 100 1002.2
20260509160018 10 158 1.6 4.8 0.00 1.17 0.00 100 1002.4
20260509155018 10 158 1.6 8.0 0.00 1.17 0.00 100 1002.3
20260509154018 10 0.0 4.8 0.00 1.17 0.00 100 1002.2
20260509153018 9 0.0 3.2 0.00 1.17 0.00 100 1002.2
20260509152019 9 248 1.6 4.8 0.00 1.17 0.00 100 1002.3
20260509151019 9 180 1.6 4.8 0.00 1.17 0.00 100 1002.6
20260509150018 9 203 1.6 4.8 0.00 1.17 0.00 100 1002.6
20260509145018 9 180 1.6 6.4 0.00 1.17 0.00 100 1002.6
20260509144058 9 0.0 4.8 0.00 1.17 0.00 100 1002.8
20260509143018 9 0.0 3.2 0.00 1.17 0.00 100 1002.9
20260509142018 9 0.0 3.2 0.00 1.17 0.00 100 1002.9
20260509141018 9 0.0 1.6 0.00 1.17 0.00 100 1003.0
20260509140019 9 0.0 1.6 0.00 1.17 0.00 100 1003.2
20260509135019 9 0.0 4.8 0.00 1.17 0.00 100 1003.2
20260509134058 9 0.0 3.2 0.00 1.17 0.00 100 1003.1
20260509133018 9 0.0 3.2 0.00 1.17 0.00 100 1003.2
20260509132118 9 0.0 4.8 0.00 1.17 0.00 100 1003.3
20260509131018 9 248 1.6 3.2 0.00 1.17 0.00 100 1003.2
20260509130018 8 0.0 3.2 0.00 1.17 0.00 100 1003.0
20260509125018 9 0.0 3.2 0.00 1.17 0.00 100 1003.2
20260509124018 8 0.0 3.2 0.00 1.17 0.00 100 1003.3
20260509123018 8 0.0 6.4 0.00 1.17 0.00 100 1003.2
20260509122038 8 0.0 4.8 0.00 1.17 0.00 100 1003.2
20260509121018 8 0.0 3.2 0.00 1.17 0.00 100 1003.3
20260509120018 8 0.0 1.6 0.00 1.17 1.17 100 1003.5
20260509115018 8 0.0 1.6 0.00 1.17 1.17 100 1003.4
20260509114038 8 0.0 1.6 0.00 1.17 1.17 100 1003.5
20260509113018 8 0.0 3.2 0.00 1.17 1.17 100 1003.6
20260509112018 8 0.0 3.2 0.00 1.17 1.17 100 1003.5
20260509111018 8 0.0 3.2 0.00 1.17 1.17 100 1003.6
20260509110018 8 0.0 1.6 0.00 1.17 1.17 100 1003.7
20260509105159 8 0.0 1.6 0.00 1.17 1.17 100 1003.8
20260509104018 8 0.0 1.6 0.00 1.17 1.17 100 1003.8
20260509103018 8 0.0 1.6 0.00 1.17 1.17 100 1003.8
20260509102018 8 0.0 0.0 0.00 1.17 1.17 100 1003.8
20260509101018 8 0.0 0.0 0.00 1.17 1.17 100 1003.6
20260509100018 8 0.0 0.0 0.00 1.17 1.17 100 1003.7
20260509095018 8 0.0 0.0 0.00 1.17 1.17 100 1003.6
20260509094018 8 0.0 0.0 0.00 1.37 1.17 100 1003.5
20260509093018 8 0.0 0.0 0.00 1.65 1.17 100 1003.4
20260509092138 8 0.0 0.0 0.00 1.83 1.17 100 1003.4
20260509091058 8 0.0 1.6 0.00 1.91 1.17 100 1003.4
20260509090018 8 0.0 1.6 0.00 1.93 1.17 100 1003.3
20260509085018 9 0.0 1.6 0.00 1.93 1.17 100 1003.4
20260509084018 9 0.0 3.2 0.00 1.93 1.17 100 1003.4
20260509083018 9 0.0 1.6 0.00 1.96 1.17 100 1003.4
20260509082058 10 0.0 3.2 0.00 2.16 1.17 100 1003.5
20260509081058 10 135 1.6 4.8 0.00 2.36 1.17 100 1003.4
20260509080018 10 180 1.6 6.4 0.00 2.49 1.17 100 1003.4
20260509074018 10 0.0 3.2 0.00 2.77 1.17 100 1003.3
20260509073018 10 180 1.6 3.2 0.00 2.90 1.17 100 1003.1
20260509072158 10 203 1.6 6.4 0.00 2.90 1.17 100 1003.2
20260509071018 10 0.0 4.8 0.00 2.95 1.17 100 1003.1
20260509070018 10 0.0 8.0 0.00 3.07 1.17 100 1003.2
20260509065018 10 0.0 0.0 0.00 3.25 1.17 100 1003.1
20260509064018 10 0.0 1.6 0.00 3.38 1.17 100 1003.0
20260509063018 11 0.0 3.2 0.00 3.43 1.17 100 1003.0
20260509061018 11 0.0 3.2 0.00 3.48 1.17 100 1003.1
20260509060018 11 0.0 3.2 0.00 3.51 1.17 100 1002.9
20260509055017 11 0.0 3.2 0.00 3.51 1.17 100 1002.8
20260509054059 11 0.0 3.2 0.00 3.51 1.17 100 1002.8
20260509053057 11 0.0 3.2 0.00 3.51 1.17 100 1002.8
20260509052018 11 0.0 3.2 0.00 3.51 1.17 100 1002.8
20260509051017 11 0.0 4.8 0.00 3.51 1.17 100 1002.9
20260509050019 12 0.0 0.0 0.00 3.51 1.17 100 1002.8
20260509045017 12 0.0 6.4 0.00 3.53 1.17 100 1002.9
20260509044018 12 248 1.6 4.8 0.00 3.53 1.17 100 1003.1
20260509043018 12 0.0 4.8 0.00 3.53 1.17 100 1003.0
20260509042018 12 0.0 3.2 0.00 3.53 1.17 100 1002.9
20260509041018 12 0.0 3.2 0.00 3.53 1.17 100 1002.9
20260509040017 13 0.0 3.2 0.03 3.53 1.17 100 1003.1
20260509035017 13 0.0 3.2 0.03 3.53 1.17 100 1003.1
20260509034018 13 0.0 3.2 0.05 3.53 1.17 100 1003.0
20260509033017 13 0.0 3.2 0.05 3.53 1.17 100 1003.0
20260509032017 13 0.0 3.2 0.05 3.53 1.17 100 1002.8
20260509031018 12 0.0 1.6 0.05 3.53 1.17 100 1002.9
20260509030017 12 0.0 1.6 0.03 3.51 1.14 100 1002.8
20260509025017 12 0.0 3.2 0.03 3.51 1.14 100 1003.2
20260509024018 12 0.0 3.2 0.03 3.48 1.12 100 1003.3
20260509023017 12 203 1.6 6.4 0.05 3.48 1.12 100 1003.2
20260509022017 13 180 1.6 6.4 0.05 3.48 1.12 100 1003.2